Weather in Mogilev

Belarus     53°53′40″N   30°19′50″E
temp.,
°C
wind,
m/s
gust,
m/s
humid.,
%
clouds,
%
prec.,
mm/h
press.,
hPa
HPBL,
m
29 june, wed
wed2900:00+21ene227999 0.0 101911
03:00+19nnw1189100 0.8 101912
06:00+19e2291100 1.9 101948
09:00+22se3585100 3.1 1018244
12:00+26se3573100 1.9 1018470
15:00+21e6988100 4.9 1018257
18:00+22se368298 2.6 1018418
21:00+19sse359498 2.6 1017177
30 june, thu
thu3000:00+16e129254 0.2 101711
03:00+16e35965 0.2 1018103
06:00+16e36963 0.0 1018152
09:00+20ese458625 0.0 1019488
12:00+23e447125 0.0 10191113
15:00+25e336113 0.1 10191597
18:00+24ene33670 0.0 10191556
21:00+19e22820 0.0 101920
1 july, fri
fri100:00+16se11835 0.0 102011
03:00+15ese22860 0.0 102111
06:00+16nne11845 0.0 102111
09:00+21ene22735 0.0 1022348
12:00+24e23575 0.0 10221189
15:00+25ene33515 0.0 10211410
18:00+24e236044 0.0 10211227
21:00+20ssw00719 0.0 102111
2 july, sat
sat200:00+17sw00790 0.0 102111
03:00+16w22790 0.0 102311
06:00+17n11810 0.0 102211
09:00+22w11680 0.0 1022259
12:00+25w215899 0.0 1022785
15:00+26wsw115369 0.0 10211063
18:00+26sw015599 0.0 10201033
21:00+21sse227252 0.0 102011
3 july, sun
sun300:00+18ssw227975 0.0 102011
03:00+18sw1278100 0.0 101911
06:00+18sw228094 0.0 101917
09:00+22sw126911 0.0 1018263
12:00+26s226024 0.0 1018810
15:00+27sse22546 0.0 10171336
18:00+27ese33654 0.1 1016794
21:00+19nw6119470 5.6 1017258